Location: Shenandoah County Park
(38.9356°N, 78.4524°W)
Time: 12:47:07
(UTC-05:00)

Transit 2A - Pass Details

Date: 17 October 2025
Orbit: 591 x 954 km, 66.7° (Epoch: 07 November)

Event Time Altitude Azimuth Distance (km) Brightness Sun altitude
Rises 21:07:02 0° 261° (W) 3,024 10.1 -30.8°
Reaches altitude 10° 21:10:21 10° 286° (WNW) 2,187 9.2 -31.4°
Maximum altitude 21:13:03 14° 319° (NW) 1,965 8.7 -31.9°
Drops below altitude 10° 21:15:53 10° 352° (N) 2,324 8.7 -32.5°
Enters shadow 21:18:08 - 8° (N) 2,897 9.1 -32.9°
